• In Germany
  • List of Countries
  • For 7 days
  • Water Temperature
  • Satellite Maps
  • Weather Map
  • Weather Widgets
  • user-avatar
    Login

    Hourly Weather Marsa al-Burajka

    Today, 24 September, Sunday

    Time Temperature Precipitation Wind Pressure Humidity
    00:00 +30°C° 0 mm 6 mps 762 mmHg 33%
    01:00 +29°C° 0 mm 6 mps 761 mmHg 34%
    02:00 +29°C° 0 mm 6 mps 761 mmHg 35%
    03:00 +28°C° 0 mm 6 mps 761 mmHg 35%
    04:00 +28°C° 0 mm 6 mps 761 mmHg 36%
    05:00 +28°C° 0 mm 6 mps 761 mmHg 37%
    06:00 +28°C° 0 mm 7 mps 761 mmHg 37%
    07:00 +28°C° 0 mm 7 mps 761 mmHg 37%
    08:00 +30°C° 0 mm 7 mps 761 mmHg 33%
    09:00 +33°C° 0 mm 7 mps 761 mmHg 29%
    10:00 +35°C° 0 mm 8 mps 761 mmHg 25%
    11:00 +38°C° 0 mm 7 mps 760 mmHg 22%
    12:00 +40°C° 0 mm 6 mps 760 mmHg 18%
    13:00 +42°C° 0 mm 5 mps 759 mmHg 15%
    14:00 +42°C° 0 mm 5 mps 759 mmHg 14%
    15:00 +42°C° 0 mm 4 mps 759 mmHg 13%
    16:00 +42°C° 0 mm 4 mps 759 mmHg 12%
    17:00 +40°C° 0 mm 4 mps 759 mmHg 17%
    18:00 +37°C° 0 mm 5 mps 759 mmHg 22%
    19:00 +36°C° 0 mm 6 mps 759 mmHg 26%
    20:00 +35°C° 0 mm 6 mps 760 mmHg 29%
    21:00 +34°C° 0 mm 6 mps 760 mmHg 32%
    22:00 +34°C° 0 mm 6 mps 760 mmHg 35%
    23:00 +33°C° 0 mm 5 mps 760 mmHg 37%

    Tomorrow, 25 September, Monday

    Time Temperature Precipitation Wind Pressure Humidity
    00:00 +33°C° 0 mm 5 mps 760 mmHg 39%
    01:00 +32°C° 0 mm 4 mps 760 mmHg 40%
    02:00 +30°C° 0 mm 5 mps 760 mmHg 42%
    03:00 +30°C° 0 mm 6 mps 759 mmHg 44%
    04:00 +30°C° 0 mm 7 mps 759 mmHg 46%
    05:00 +29°C° 0 mm 7 mps 759 mmHg 47%
    06:00 +29°C° 0 mm 6 mps 760 mmHg 49%
    07:00 +29°C° 0 mm 6 mps 760 mmHg 50%
    08:00 +30°C° 0 mm 6 mps 760 mmHg 46%
    09:00 +32°C° 0 mm 6 mps 761 mmHg 42%
    10:00 +33°C° 0 mm 6 mps 761 mmHg 38%
    11:00 +34°C° 0 mm 7 mps 761 mmHg 37%
    12:00 +34°C° 0 mm 7 mps 760 mmHg 35%
    13:00 +35°C° 0 mm 7 mps 760 mmHg 33%
    14:00 +34°C° 0 mm 8 mps 760 mmHg 37%
    15:00 +33°C° 0 mm 8 mps 760 mmHg 40%
    16:00 +32°C° 0 mm 8 mps 760 mmHg 44%
    17:00 +31°C° 0 mm 8 mps 760 mmHg 47%
    18:00 +29°C° 0 mm 8 mps 761 mmHg 51%
    19:00 +28°C° 0 mm 8 mps 761 mmHg 55%
    20:00 +28°C° 0 mm 7 mps 761 mmHg 55%
    21:00 +28°C° 0 mm 7 mps 762 mmHg 56%
    22:00 +27°C° 0 mm 6 mps 762 mmHg 56%
    23:00 +27°C° 0 mm 6 mps 762 mmHg 57%

    Day after tomorrow, 26 September, Tuesday

    Time Temperature Precipitation Wind Pressure Humidity
    00:00 +27°C° 0 mm 5 mps 762 mmHg 58%
    01:00 +26°C° 0 mm 5 mps 762 mmHg 59%
    02:00 +26°C° 0 mm 4 mps 761 mmHg 59%
    03:00 +25°C° 0 mm 4 mps 761 mmHg 59%
    04:00 +25°C° 0 mm 4 mps 761 mmHg 59%
    05:00 +25°C° 0 mm 3 mps 761 mmHg 57%
    06:00 +26°C° 0 mm 3 mps 762 mmHg 55%
    07:00 +26°C° 0 mm 3 mps 762 mmHg 53%
    08:00 +27°C° 0 mm 2 mps 762 mmHg 48%
    09:00 +29°C° 0 mm 2 mps 763 mmHg 43%
    10:00 +30°C° 0 mm 2 mps 763 mmHg 37%
    11:00 +31°C° 0 mm 3 mps 762 mmHg 36%
    12:00 +33°C° 0 mm 4 mps 762 mmHg 34%
    13:00 +34°C° 0 mm 4 mps 762 mmHg 32%
    14:00 +33°C° 0 mm 5 mps 761 mmHg 37%
    15:00 +32°C° 0 mm 5 mps 761 mmHg 42%
    16:00 +30°C° 0 mm 6 mps 761 mmHg 46%
    17:00 +29°C° 0 mm 6 mps 761 mmHg 52%
    18:00 +28°C° 0 mm 5 mps 762 mmHg 57%
    19:00 +27°C° 0 mm 5 mps 762 mmHg 63%
    20:00 +27°C° 0 mm 5 mps 763 mmHg 65%
    21:00 +27°C° 0 mm 4 mps 763 mmHg 66%
    22:00 +26°C° 0 mm 4 mps 763 mmHg 68%
    23:00 +26°C° 0 mm 4 mps 763 mmHg 68%

    27 September, Wednesday

    Time Temperature Precipitation Wind Pressure Humidity
    00:00 +26°C° 0 mm 4 mps 763 mmHg 69%
    01:00 +25°C° 0 mm 4 mps 763 mmHg 69%
    02:00 +25°C° 0 mm 4 mps 763 mmHg 69%
    03:00 +25°C° 0 mm 4 mps 762 mmHg 69%
    04:00 +23°C° 0 mm 4 mps 762 mmHg 70%
    05:00 +24°C° 0 mm 3 mps 763 mmHg 68%
    06:00 +25°C° 0 mm 3 mps 763 mmHg 66%
    07:00 +25°C° 0 mm 3 mps 763 mmHg 65%
    08:00 +26°C° 0 mm 3 mps 763 mmHg 58%
    09:00 +27°C° 0 mm 2 mps 764 mmHg 51%
    10:00 +29°C° 0 mm 2 mps 764 mmHg 44%
    11:00 +30°C° 0 mm 2 mps 763 mmHg 39%
    12:00 +31°C° 0 mm 2 mps 763 mmHg 33%
    13:00 +33°C° 0 mm 3 mps 763 mmHg 28%
    14:00 +33°C° 0 mm 4 mps 762 mmHg 33%
    15:00 +32°C° 0 mm 5 mps 762 mmHg 37%
    16:00 +30°C° 0 mm 6 mps 762 mmHg 41%
    17:00 +29°C° 0 mm 6 mps 762 mmHg 47%
    18:00 +28°C° 0 mm 6 mps 763 mmHg 53%
    19:00 +27°C° 0 mm 6 mps 763 mmHg 59%
    20:00 +27°C° 0 mm 5 mps 763 mmHg 61%
    21:00 +26°C° 0 mm 5 mps 763 mmHg 63%
    22:00 +26°C° 0 mm 4 mps 764 mmHg 65%
    23:00 +26°C° 0 mm 4 mps 763 mmHg 66%

    28 September, Thursday

    Time Temperature Precipitation Wind Pressure Humidity
    00:00 +25°C° 0 mm 4 mps 763 mmHg 67%
    01:00 +25°C° 0 mm 3 mps 763 mmHg 68%
    02:00 +25°C° 0 mm 3 mps 763 mmHg 68%
    03:00 +24°C° 0 mm 3 mps 763 mmHg 67%
    04:00 +24°C° 0 mm 3 mps 762 mmHg 67%
    05:00 +24°C° 0 mm 3 mps 763 mmHg 65%
    06:00 +24°C° 0 mm 3 mps 763 mmHg 63%
    07:00 +25°C° 0 mm 3 mps 763 mmHg 62%
    08:00 +26°C° 0 mm 3 mps 763 mmHg 55%
    09:00 +28°C° 0 mm 3 mps 764 mmHg 49%
    10:00 +29°C° 0 mm 3 mps 764 mmHg 42%
    11:00 +30°C° 0 mm 3 mps 763 mmHg 39%
    12:00 +30°C° 0 mm 4 mps 763 mmHg 37%
    13:00 +32°C° 0 mm 4 mps 762 mmHg 34%
    14:00 +30°C° 0 mm 5 mps 762 mmHg 37%
    15:00 +30°C° 0 mm 6 mps 762 mmHg 40%
    16:00 +30°C° 0 mm 6 mps 762 mmHg 42%
    17:00 +29°C° 0 mm 6 mps 762 mmHg 46%
    18:00 +28°C° 0 mm 5 mps 762 mmHg 49%
    19:00 +27°C° 0 mm 4 mps 763 mmHg 52%
    20:00 +27°C° 0 mm 4 mps 763 mmHg 55%
    21:00 +27°C° 0 mm 4 mps 763 mmHg 58%
    22:00 +26°C° 0 mm 4 mps 763 mmHg 60%
    23:00 +26°C° 0 mm 4 mps 763 mmHg 61%

    29 September, Friday

    Time Temperature Precipitation Wind Pressure Humidity
    00:00 +25°C° 0 mm 4 mps 762 mmHg 63%
    01:00 +25°C° 0 mm 4 mps 762 mmHg 64%
    02:00 +25°C° 0 mm 4 mps 762 mmHg 64%
    03:00 +23°C° 0 mm 4 mps 762 mmHg 64%
    04:00 +23°C° 0 mm 4 mps 762 mmHg 64%
    05:00 +23°C° 0 mm 4 mps 762 mmHg 63%
    06:00 +25°C° 0 mm 4 mps 762 mmHg 62%
    07:00 +25°C° 0 mm 4 mps 762 mmHg 61%
    08:00 +26°C° 0 mm 4 mps 762 mmHg 54%
    09:00 +28°C° 0 mm 3 mps 762 mmHg 47%
    10:00 +29°C° 0 mm 3 mps 762 mmHg 41%
    11:00 +30°C° 0 mm 3 mps 762 mmHg 37%
    12:00 +31°C° 0 mm 3 mps 761 mmHg 33%
    13:00 +33°C° 0 mm 3 mps 761 mmHg 29%
    14:00 +33°C° 0 mm 3 mps 761 mmHg 30%
    15:00 +33°C° 0 mm 4 mps 760 mmHg 32%
    16:00 +33°C° 0 mm 5 mps 760 mmHg 34%
    17:00 +30°C° 0 mm 6 mps 760 mmHg 41%
    18:00 +29°C° 0 mm 6 mps 761 mmHg 47%
    19:00 +27°C° 0 mm 6 mps 761 mmHg 54%
    20:00 +27°C° 0 mm 7 mps 761 mmHg 56%
    21:00 +27°C° 0 mm 7 mps 761 mmHg 58%
    22:00 +27°C° 0 mm 7 mps 761 mmHg 59%
    23:00 +26°C° 0 mm 6 mps 761 mmHg 58%
    Show more